Find Starlink 11474

NORAD ID: 62065 Int'l Des: 2024-217 Owner: SPXS Country: US Constellation: starlink operational
LEOCIRCULAR

Current View

Loading 3D Globe...

About Starlink 11474

Starlink 11474 (NORAD 62065) is a starlink constellation satellite (v2 mini d2c) launched Nov 24, 2024 by SPXS of US. It operates in LEO, CIRCULAR orbit with a mass of 960.00 kg.

About Starlink 11474

Description loading...

Upcoming Passes

Passes for default location (London). Set your location on the main map for personalized predictions.

Altitude History

Loading altitude history...

Two-Line Element Set

1 62065U 24217J 26168.62350560 .00240988 00000-0 19205-2 0 9995
2 62065 53.1580 298.2974 0000537 43.0008 317.1051 15.69912975 90870
Epoch: Jun 17, 2026 • Age: 7 hours

Current Status

Altitude 377.5 km
Velocity 7.68 km/s
Sub-Earth Point -53.31°S, 32.09°W
Launch Date Nov 24, 2024
Age 1.5 years
Type internet

Technical Details

Classification Payload
Mass 960.00 kg
Dry Mass 910.00 kg
Total Mass 960.00 kg
Length 0.30 m
Diameter 4.10 m
Span 29.00 m
Shape Box + pan
Manufacturer SPXS
Bus Type Starlink V2MD
Phase Status In Orbit
Owner/State SPXS/US

Most Searched